GFSNW_500_temp_072.txt.gz
Temp
-25 -25 -25 -25 -25 -26 -25 -25 -24 -22 -23 -22 -19 -17 -17 -17 -18 -18 -18 -18 -18 -19 -18 -18 -18 -18 -17 -16 -15 -16 -15 -14 -14 -14 -14 -14 -15 -15 -15 -15 -14 -14 -13 -11
-26 -26 -26 -25 -26 -26 -26 -26 -25 -24 -24 -22 -19 -18 -19 -19 -19 -19 -18 -18 -18 -19 -19 -20 -20 -20 -18 -18 -17 -16 -15 -15 -14 -14 -15 -14 -14 -14 -14 -14 -14 -12 -13 -11
-26 -26 -26 -26 -26 -26 -26 -27 -27 -27 -25 -22 -22 -21 -20 -20 -21 -21 -20 -20 -20 -20 -20 -20 -20 -21 -19 -19 -18 -17 -17 -16 -15 -15 -15 -16 -14 -14 -14 -14 -13 -13 -12 -12
-26 -26 -27 -27 -27 -27 -27 -27 -26 -26 -25 -23 -24 -23 -22 -22 -22 -23 -22 -21 -22 -21 -21 -20 -20 -21 -21 -20 -19 -19 -19 -17 -16 -15 -16 -16 -15 -15 -14 -14 -14 -14 -13 -13
-27 -27 -27 -27 -27 -27 -27 -26 -26 -25 -25 -24 -24 -24 -23 -23 -24 -24 -23 -23 -23 -23 -22 -21 -21 -21 -21 -21 -21 -20 -20 -18 -18 -17 -16 -17 -16 -16 -16 -16 -15 -14 -13 -13
-26 -27 -27 -27 -27 -28 -27 -26 -26 -25 -24 -24 -23 -23 -23 -23 -24 -23 -23 -23 -23 -23 -23 -22 -21 -21 -21 -20 -21 -20 -20 -20 -19 -18 -18 -18 -16 -17 -17 -16 -16 -15 -15 -13
-25 -26 -26 -27 -28 -27 -26 -25 -25 -25 -24 -24 -23 -23 -23 -23 -23 -23 -23 -23 -23 -23 -23 -22 -21 -21 -20 -20 -20 -20 -20 -20 -19 -19 -19 -18 -17 -18 -17 -17 -16 -16 -15 -15
-24 -25 -25 -25 -26 -26 -25 -25 -25 -25 -24 -24 -24 -24 -23 -23 -23 -23 -23 -23 -23 -23 -22 -22 -21 -21 -21 -20 -20 -20 -20 -21 -20 -19 -19 -18 -18 -18 -18 -17 -17 -17 -16 -16
-24 -24 -24 -25 -25 -25 -25 -25 -24 -24 -24 -23 -24 -23 -23 -23 -23 -23 -23 -23 -23 -23 -22 -21 -21 -21 -21 -21 -20 -20 -20 -20 -21 -20 -19 -18 -17 -19 -19 -18 -16 -18 -17 -16
-23 -24 -24 -24 -24 -24 -24 -24 -24 -24 -24 -23 -23 -23 -23 -23 -23 -23 -23 -23 -23 -23 -22 -21 -21 -21 -21 -20 -20 -20 -20 -20 -20 -20 -21 -19 -19 -19 -19 -19 -17 -18 -17 -17
-23 -23 -23 -23 -24 -24 -24 -23 -23 -24 -23 -24 -23 -23 -23 -23 -23 -22 -23 -23 -23 -22 -22 -21 -21 -21 -21 -21 -21 -20 -21 -21 -20 -20 -20 -19 -20 -20 -19 -19 -19 -18 -19 -17
-23 -23 -23 -23 -23 -23 -23 -23 -23 -24 -24 -23 -23 -23 -23 -23 -23 -23 -23 -23 -23 -22 -22 -21 -21 -21 -21 -21 -21 -21 -20 -21 -21 -21 -20 -20 -20 -20 -20 -20 -18 -18 -19 -18
-24 -23 -23 -23 -23 -23 -23 -23 -23 -23 -23 -23 -23 -23 -23 -22 -23 -23 -23 -23 -23 -22 -22 -22 -21 -21 -21 -20 -20 -20 -21 -21 -21 -21 -20 -20 -20 -20 -20 -21 -20 -19 -19 -18
-26 -24 -24 -23 -23 -23 -23 -23 -23 -23 -23 -23 -23 -23 -23 -23 -23 -23 -23 -24 -23 -23 -23 -22 -22 -22 -21 -21 -21 -21 -21 -21 -21 -20 -20 -21 -21 -21 -21 -21 -20 -20 -19 -18
-26 -26 -25 -24 -24 -24 -24 -24 -24 -24 -25 -24 -24 -24 -24 -23 -23 -23 -24 -24 -24 -24 -24 -22 -22 -22 -22 -22 -22 -21 -21 -21 -21 -21 -21 -21 -21 -21 -21 -21 -20 -20 -20 -19
-27 -27 -26 -25 -26 -26 -26 -26 -26 -26 -26 -25 -24 -23 -24 -24 -24 -24 -24 -24 -25 -24 -24 -24 -23 -23 -24 -23 -22 -22 -22 -22 -21 -21 -21 -22 -21 -21 -21 -21 -20 -20 -20 -19
-27 -27 -27 -27 -27 -26 -26 -25 -26 -26 -26 -26 -26 -25 -25 -25 -26 -25 -24 -24 -24 -25 -25 -25 -25 -25 -24 -24 -23 -23 -23 -22 -22 -22 -22 -22 -22 -21 -21 -21 -21 -20 -20 -20
-28 -27 -27 -27 -27 -27 -27 -27 -27 -27 -27 -27 -26 -26 -26 -25 -26 -26 -25 -24 -25 -25 -25 -25 -25 -25 -25 -24 -24 -24 -24 -23 -23 -23 -23 -23 -22 -21 -22 -22 -21 -21 -21 -20
-28 -28 -28 -28 -27 -28 -26 -27 -27 -27 -27 -27 -26 -25 -26 -26 -26 -26 -26 -26 -26 -26 -25 -25 -25 -25 -24 -24 -24 -24 -24 -23 -24 -23 -23 -22 -22 -22 -22 -22 -22 -21 -21 -21
-28 -28 -28 -28 -28 -28 -28 -27 -27 -27 -27 -27 -27 -26 -26 -26 -26 -26 -26 -26 -25 -26 -25 -25 -25 -25 -24 -24 -24 -24 -24 -24 -24 -23 -22 -23 -22 -22 -22 -22 -22 -21 -22 -21
-28 -28 -28 -28 -28 -28 -28 -27 -27 -27 -26 -26 -26 -26 -26 -26 -26 -26 -26 -25 -26 -25 -25 -25 -25 -24 -24 -24 -24 -24 -24 -24 -24 -23 -23 -23 -23 -23 -22 -22 -22 -22 -22 -22
-28 -28 -28 -28 -28 -27 -27 -26 -26 -26 -26 -26 -26 -26 -26 -26 -26 -26 -25 -25 -25 -25 -25 -25 -24 -24 -24 -24 -24 -24 -24 -24 -24 -23 -23 -23 -23 -22 -22 -22 -22 -22 -21 -21
-28 -28 -27 -27 -27 -27 -26 -26 -26 -26 -26 -26 -26 -26 -26 -26 -26 -26 -26 -26 -26 -25 -25 -24 -24 -25 -25 -25 -24 -24 -24 -24 -24 -24 -23 -23 -23 -23 -23 -22 -22 -22 -22 -22
-27 -27 -27 -26 -25 -25 -25 -25 -25 -26 -26 -26 -26 -26 -25 -25 -26 -26 -26 -26 -26 -25 -25 -25 -25 -25 -25 -25 -25 -24 -24 -24 -24 -24 -23 -23 -23 -23 -22 -23 -23 -23 -22 -22
-26 -26 -25 -25 -25 -25 -26 -26 -26 -26 -26 -26 -25 -25 -25 -25 -25 -25 -26 -26 -25 -24 -25 -25 -25 -25 -25 -25 -25 -25 -24 -24 -24 -24 -23 -23 -23 -23 -22 -22 -22 -22 -22 -22
-25 -25 -26 -26 -26 -26 -26 -26 -26 -26 -25 -25 -25 -25 -25 -25 -25 -25 -25 -24 -24 -24 -25 -25 -24 -24 -24 -25 -24 -24 -24 -24 -24 -23 -23 -23 -23 -23 -23 -22 -22 -22 -22 -22
-25 -25 -26 -26 -26 -26 -26 -26 -25 -25 -25 -25 -25 -25 -25 -25 -24 -24 -24 -24 -24 -24 -24 -24 -24 -24 -24 -24 -24 -24 -24 -24 -23 -23 -23 -22 -22 -23 -22 -23 -23 -23 -23 -23

GFSNW_500_temp_075.txt.gz
Temp
-24 -23 -23 -23 -24 -24 -24 -24 -23 -23 -23 -23 -21 -20 -19 -19 -20 -19 -19 -19 -20 -19 -20 -20 -19 -18 -17 -16 -16 -16 -15 -15 -15 -16 -16 -17 -16 -15 -15 -15 -14 -14 -14 -13
-24 -24 -24 -24 -25 -25 -26 -25 -25 -25 -25 -24 -22 -22 -21 -21 -21 -20 -20 -19 -20 -21 -21 -20 -19 -19 -18 -17 -17 -16 -16 -16 -15 -16 -16 -16 -16 -15 -15 -15 -14 -13 -13 -13
-24 -25 -25 -26 -26 -27 -27 -26 -26 -26 -26 -25 -25 -23 -23 -22 -23 -21 -21 -21 -21 -21 -21 -21 -20 -19 -18 -17 -17 -16 -16 -16 -16 -16 -16 -16 -16 -16 -15 -14 -14 -13 -13 -13
-26 -26 -26 -26 -27 -27 -28 -27 -26 -26 -26 -26 -25 -25 -24 -24 -23 -23 -23 -22 -22 -22 -21 -21 -21 -20 -19 -18 -17 -17 -17 -16 -16 -16 -16 -16 -16 -16 -16 -15 -15 -14 -14 -14
-26 -27 -27 -27 -27 -27 -28 -27 -26 -26 -26 -26 -26 -26 -25 -25 -25 -24 -24 -24 -24 -23 -22 -22 -21 -21 -19 -19 -17 -18 -17 -17 -17 -17 -17 -17 -16 -16 -16 -16 -16 -14 -14 -14
-26 -26 -26 -27 -28 -27 -27 -27 -27 -27 -26 -26 -26 -25 -25 -25 -25 -25 -25 -24 -24 -24 -24 -22 -20 -20 -20 -19 -20 -19 -18 -18 -19 -18 -19 -18 -16 -17 -17 -17 -17 -16 -15 -15
-25 -25 -26 -27 -27 -27 -27 -27 -27 -27 -26 -26 -26 -26 -25 -25 -24 -24 -24 -24 -24 -24 -24 -23 -22 -21 -21 -20 -21 -21 -20 -21 -20 -19 -20 -19 -17 -19 -18 -18 -17 -17 -16 -15
-25 -25 -26 -26 -27 -27 -27 -27 -27 -27 -26 -26 -26 -25 -25 -25 -24 -24 -24 -24 -24 -24 -23 -23 -22 -22 -21 -21 -21 -21 -21 -21 -21 -21 -21 -19 -18 -18 -19 -19 -18 -18 -17 -17
-24 -25 -25 -25 -26 -27 -27 -27 -27 -27 -26 -25 -26 -25 -25 -24 -24 -24 -24 -24 -24 -24 -23 -22 -22 -22 -21 -21 -21 -22 -21 -21 -21 -20 -20 -19 -18 -19 -20 -19 -19 -19 -18 -18
-24 -24 -25 -25 -25 -26 -27 -26 -27 -26 -26 -25 -25 -25 -24 -24 -24 -24 -24 -24 -24 -23 -23 -22 -22 -22 -22 -22 -22 -22 -21 -21 -21 -20 -20 -19 -19 -21 -21 -20 -19 -19 -19 -19
-25 -24 -24 -24 -25 -26 -25 -25 -26 -26 -25 -25 -25 -24 -24 -24 -24 -23 -23 -24 -24 -23 -22 -22 -22 -22 -22 -22 -22 -22 -21 -21 -21 -20 -20 -20 -20 -21 -21 -20 -19 -19 -19 -18
-26 -24 -24 -24 -24 -25 -25 -25 -25 -25 -26 -25 -25 -24 -24 -24 -24 -24 -23 -24 -24 -23 -22 -22 -22 -22 -22 -22 -22 -21 -21 -21 -21 -20 -20 -20 -20 -21 -20 -20 -20 -20 -19 -19
-26 -24 -24 -24 -24 -25 -25 -24 -25 -25 -25 -25 -24 -24 -24 -24 -24 -23 -23 -24 -23 -22 -22 -22 -22 -21 -21 -21 -21 -21 -21 -21 -21 -21 -21 -21 -21 -20 -20 -20 -20 -20 -20 -20
-27 -25 -24 -24 -24 -24 -24 -24 -24 -24 -24 -24 -24 -24 -24 -24 -23 -23 -24 -24 -23 -23 -23 -22 -22 -22 -22 -22 -21 -21 -21 -21 -21 -21 -21 -21 -21 -21 -21 -21 -20 -20 -20 -20
-27 -26 -25 -24 -24 -24 -24 -24 -24 -24 -24 -24 -24 -24 -24 -24 -24 -23 -24 -24 -24 -24 -23 -22 -22 -22 -22 -22 -21 -21 -21 -21 -21 -21 -21 -21 -21 -22 -21 -21 -21 -20 -20 -21
-27 -27 -26 -25 -25 -24 -24 -24 -24 -24 -24 -24 -25 -24 -24 -24 -24 -23 -24 -24 -24 -24 -23 -23 -23 -24 -23 -22 -22 -22 -22 -22 -21 -21 -21 -21 -21 -21 -21 -21 -21 -21 -20 -20
-27 -27 -27 -26 -25 -25 -24 -24 -24 -25 -25 -25 -25 -25 -25 -24 -24 -24 -24 -24 -24 -24 -24 -24 -24 -25 -24 -23 -22 -22 -23 -23 -22 -22 -22 -22 -21 -21 -21 -21 -21 -21 -21 -20
-27 -27 -27 -27 -26 -26 -25 -26 -26 -25 -26 -26 -26 -26 -25 -25 -25 -24 -24 -24 -24 -24 -24 -24 -24 -25 -24 -24 -23 -23 -23 -23 -23 -23 -22 -22 -22 -22 -22 -22 -22 -22 -21 -21
-27 -27 -27 -27 -27 -27 -27 -27 -26 -26 -26 -26 -26 -26 -25 -25 -25 -25 -25 -25 -25 -25 -25 -25 -25 -25 -25 -24 -24 -24 -24 -24 -24 -24 -24 -24 -23 -23 -23 -23 -23 -22 -22 -21
-27 -27 -27 -27 -27 -27 -27 -26 -26 -26 -26 -27 -26 -26 -26 -25 -25 -26 -25 -25 -25 -25 -25 -25 -25 -25 -24 -24 -24 -24 -24 -24 -24 -24 -24 -24 -24 -23 -24 -23 -23 -23 -23 -22
-28 -27 -28 -28 -28 -28 -28 -27 -27 -27 -26 -26 -26 -26 -25 -25 -25 -26 -26 -25 -25 -25 -25 -25 -25 -25 -25 -25 -25 -25 -25 -25 -24 -24 -24 -24 -24 -23 -23 -23 -23 -23 -22 -22
-28 -28 -28 -28 -28 -28 -27 -27 -26 -26 -26 -26 -25 -26 -26 -26 -26 -26 -26 -26 -26 -26 -25 -25 -25 -25 -25 -25 -25 -25 -25 -25 -24 -24 -24 -24 -24 -24 -24 -23 -23 -23 -23 -23
-28 -28 -28 -28 -28 -27 -26 -26 -26 -26 -26 -26 -26 -26 -26 -26 -26 -26 -26 -26 -25 -25 -25 -25 -25 -25 -25 -25 -25 -25 -25 -24 -24 -24 -24 -24 -24 -24 -24 -23 -23 -23 -22 -22
-28 -27 -27 -27 -26 -26 -26 -26 -26 -26 -26 -26 -26 -26 -26 -26 -26 -26 -26 -26 -26 -25 -25 -25 -25 -25 -25 -25 -25 -25 -25 -25 -25 -25 -24 -24 -24 -24 -24 -23 -23 -23 -23 -23
-27 -26 -26 -26 -26 -26 -26 -26 -26 -26 -26 -26 -26 -26 -26 -26 -26 -26 -26 -26 -26 -25 -25 -25 -25 -25 -25 -25 -25 -25 -25 -25 -25 -25 -25 -24 -24 -24 -23 -23 -23 -23 -23 -23
-26 -26 -26 -26 -26 -26 -26 -26 -26 -26 -26 -26 -26 -25 -25 -25 -25 -25 -25 -26 -25 -25 -25 -25 -25 -25 -25 -24 -25 -25 -25 -25 -25 -25 -25 -24 -24 -24 -24 -23 -23 -23 -23 -23
-26 -26 -26 -26 -26 -26 -26 -26 -26 -26 -26 -25 -25 -25 -25 -25 -25 -25 -25 -24 -24 -24 -25 -25 -25 -25 -25 -25 -25 -25 -25 -25 -25 -25 -24 -24 -24 -24 -24 -24 -23 -24 -24 -24

GFSNW_500_temp_078.txt.gz
Temp
-25 -24 -24 -24 -24 -24 -23 -23 -23 -23 -23 -22 -21 -21 -21 -21 -21 -21 -21 -20 -20 -20 -19 -20 -19 -19 -18 -18 -19 -18 -17 -18 -18 -18 -16 -16 -15 -15 -15 -15 -15 -15 -15 -15
-25 -24 -25 -24 -24 -24 -24 -24 -23 -23 -23 -23 -22 -22 -22 -21 -22 -22 -21 -20 -21 -20 -20 -20 -20 -19 -19 -18 -18 -18 -18 -17 -18 -17 -17 -17 -16 -16 -16 -15 -15 -14 -14 -15
-25 -25 -25 -25 -24 -24 -24 -24 -24 -23 -23 -23 -23 -23 -22 -22 -23 -23 -22 -22 -21 -21 -21 -20 -20 -20 -19 -18 -18 -18 -18 -17 -17 -18 -17 -17 -16 -16 -16 -15 -15 -15 -15 -15
-25 -25 -25 -25 -25 -25 -25 -24 -24 -24 -24 -24 -25 -25 -24 -24 -24 -24 -24 -22 -22 -22 -21 -20 -19 -20 -19 -18 -18 -18 -18 -18 -17 -17 -17 -17 -17 -17 -16 -16 -16 -16 -16 -16
-25 -26 -26 -26 -26 -26 -26 -25 -25 -25 -26 -26 -26 -26 -26 -26 -25 -25 -24 -24 -24 -23 -22 -21 -21 -19 -18 -18 -18 -18 -18 -18 -18 -17 -17 -17 -17 -17 -17 -17 -17 -16 -16 -16
-26 -26 -26 -26 -26 -26 -26 -26 -26 -26 -26 -27 -27 -27 -26 -26 -26 -26 -26 -26 -25 -24 -23 -22 -21 -20 -20 -19 -20 -19 -19 -19 -19 -20 -19 -18 -16 -17 -17 -17 -17 -17 -17 -16
-25 -26 -26 -26 -26 -26 -26 -27 -27 -27 -27 -27 -27 -27 -26 -26 -26 -25 -25 -25 -25 -25 -24 -23 -22 -21 -20 -19 -20 -21 -20 -20 -20 -20 -20 -19 -18 -18 -18 -18 -18 -18 -18 -17
-27 -26 -25 -25 -25 -26 -26 -27 -27 -27 -27 -27 -27 -27 -27 -26 -26 -25 -25 -25 -25 -24 -24 -24 -23 -22 -22 -21 -21 -20 -21 -21 -20 -21 -20 -19 -19 -19 -19 -19 -19 -18 -18 -17
-27 -27 -26 -25 -25 -26 -26 -26 -27 -27 -27 -27 -27 -27 -27 -26 -26 -25 -25 -25 -24 -24 -24 -24 -23 -23 -22 -22 -21 -21 -22 -21 -21 -21 -20 -19 -19 -19 -19 -20 -20 -19 -18 -18
-27 -26 -27 -26 -25 -25 -26 -26 -27 -27 -27 -27 -27 -26 -26 -26 -25 -25 -25 -25 -24 -24 -24 -23 -23 -23 -22 -22 -22 -22 -22 -22 -21 -21 -21 -20 -20 -21 -20 -19 -20 -19 -19 -19
-26 -26 -26 -26 -25 -26 -26 -26 -27 -27 -27 -27 -27 -26 -26 -25 -25 -25 -25 -25 -25 -24 -23 -23 -22 -22 -22 -23 -23 -22 -22 -22 -22 -21 -21 -20 -21 -21 -20 -20 -20 -20 -20 -20
-26 -26 -26 -26 -25 -25 -26 -26 -27 -28 -27 -27 -26 -26 -25 -25 -25 -25 -25 -25 -24 -24 -23 -22 -22 -22 -23 -23 -22 -22 -22 -22 -21 -21 -21 -21 -21 -20 -21 -20 -20 -20 -20 -20
-27 -26 -26 -26 -25 -25 -25 -26 -27 -27 -26 -26 -26 -25 -25 -25 -25 -25 -24 -24 -24 -23 -23 -23 -23 -22 -22 -22 -22 -22 -22 -22 -21 -21 -21 -21 -21 -20 -20 -21 -21 -20 -20 -20
-28 -27 -27 -26 -25 -25 -25 -25 -26 -25 -25 -25 -25 -25 -25 -25 -25 -25 -24 -24 -24 -23 -23 -23 -23 -22 -22 -22 -22 -22 -22 -21 -21 -21 -21 -21 -21 -20 -21 -21 -20 -20 -20 -20
-27 -27 -27 -26 -25 -25 -24 -25 -24 -25 -25 -25 -25 -25 -25 -24 -24 -24 -24 -24 -24 -23 -23 -23 -23 -23 -23 -23 -22 -22 -22 -22 -21 -21 -21 -21 -21 -21 -21 -21 -21 -21 -20 -20
-27 -27 -27 -26 -25 -25 -25 -25 -25 -25 -25 -25 -25 -25 -24 -24 -24 -24 -24 -24 -24 -24 -23 -23 -23 -23 -23 -22 -22 -22 -22 -22 -22 -21 -22 -21 -22 -22 -21 -21 -21 -21 -21 -21
-27 -27 -27 -26 -25 -25 -25 -24 -24 -24 -25 -25 -25 -25 -25 -24 -24 -24 -24 -24 -24 -24 -24 -23 -24 -23 -23 -22 -22 -22 -22 -22 -22 -22 -22 -21 -21 -21 -21 -21 -21 -21 -21 -21
-27 -27 -26 -26 -25 -25 -25 -25 -25 -25 -25 -25 -25 -25 -25 -25 -25 -24 -24 -24 -24 -24 -23 -23 -24 -24 -24 -22 -22 -23 -23 -23 -22 -23 -22 -22 -22 -22 -22 -22 -21 -21 -21 -21
-27 -27 -27 -27 -26 -26 -26 -26 -26 -26 -25 -25 -25 -25 -25 -25 -24 -24 -24 -24 -24 -24 -24 -24 -24 -24 -23 -22 -23 -24 -24 -24 -23 -23 -23 -23 -23 -23 -22 -23 -23 -23 -23 -22
-27 -27 -27 -28 -27 -27 -27 -26 -26 -26 -26 -26 -25 -25 -25 -25 -24 -24 -24 -25 -25 -25 -25 -25 -25 -25 -24 -24 -25 -25 -24 -24 -24 -24 -23 -23 -23 -24 -24 -24 -24 -23 -23 -23
-27 -27 -27 -27 -27 -27 -27 -26 -26 -26 -26 -26 -25 -25 -26 -25 -25 -25 -26 -25 -25 -25 -25 -25 -25 -25 -25 -25 -25 -24 -24 -24 -24 -24 -24 -24 -24 -24 -24 -24 -24 -23 -23 -23
-28 -27 -27 -27 -27 -26 -27 -27 -26 -26 -26 -26 -26 -26 -26 -25 -25 -26 -26 -25 -25 -25 -25 -25 -25 -25 -25 -25 -25 -25 -25 -25 -25 -25 -24 -24 -24 -25 -24 -24 -24 -24 -24 -23
-28 -28 -27 -27 -27 -27 -27 -26 -26 -26 -26 -26 -25 -25 -25 -25 -25 -26 -26 -26 -26 -26 -25 -25 -25 -25 -25 -25 -25 -25 -25 -25 -25 -25 -25 -25 -25 -25 -24 -24 -24 -24 -24 -24
-28 -27 -27 -27 -27 -26 -26 -26 -26 -26 -26 -26 -26 -26 -25 -25 -26 -26 -26 -26 -26 -25 -25 -25 -25 -26 -25 -25 -25 -25 -25 -25 -25 -25 -25 -25 -25 -25 -25 -25 -24 -24 -24 -24
-28 -28 -27 -26 -26 -26 -26 -26 -26 -26 -26 -26 -26 -26 -26 -26 -26 -26 -26 -26 -26 -26 -26 -26 -26 -26 -25 -25 -25 -25 -25 -25 -25 -25 -25 -25 -25 -25 -25 -25 -24 -24 -24 -24
-27 -27 -27 -26 -26 -26 -26 -26 -26 -26 -26 -26 -26 -26 -26 -26 -26 -26 -26 -26 -26 -26 -26 -26 -26 -25 -25 -25 -25 -25 -25 -25 -25 -25 -25 -25 -25 -25 -25 -25 -25 -24 -24 -24
-26 -26 -26 -26 -26 -26 -26 -26 -26 -26 -25 -25 -25 -25 -25 -25 -25 -25 -25 -25 -25 -25 -25 -25 -25 -25 -25 -25 -25 -25 -25 -25 -25 -25 -25 -25 -25 -25 -25 -25 -25 -24 -24 -24

GFSNW_500_temp_081.txt.gz
Temp
-27 -26 -26 -25 -25 -25 -25 -24 -24 -24 -24 -23 -22 -21 -21 -21 -21 -21 -21 -20 -20 -21 -19 -20 -19 -19 -19 -19 -19 -20 -19 -19 -18 -18 -17 -17 -16 -16 -15 -15 -15 -15 -15 -15
-28 -27 -26 -26 -25 -25 -25 -25 -24 -24 -24 -23 -22 -22 -22 -22 -21 -22 -21 -21 -21 -21 -20 -20 -20 -19 -19 -19 -19 -19 -19 -19 -19 -18 -18 -17 -16 -17 -18 -17 -17 -16 -16 -16
-29 -28 -27 -26 -26 -25 -25 -25 -24 -24 -24 -23 -23 -23 -23 -23 -22 -22 -22 -21 -21 -21 -21 -21 -20 -20 -20 -19 -19 -20 -19 -19 -19 -19 -19 -18 -18 -18 -17 -17 -16 -16 -16 -16
-29 -28 -27 -26 -26 -25 -25 -25 -24 -24 -24 -24 -24 -24 -24 -23 -23 -23 -23 -22 -21 -22 -21 -21 -21 -20 -20 -21 -19 -20 -20 -19 -20 -19 -18 -19 -19 -18 -18 -18 -18 -18 -17 -17
-28 -27 -27 -27 -26 -26 -26 -25 -25 -25 -24 -24 -24 -24 -24 -24 -25 -24 -24 -24 -23 -23 -22 -21 -21 -21 -20 -20 -20 -20 -19 -20 -19 -19 -19 -19 -19 -18 -18 -17 -17 -17 -17 -17
-27 -27 -27 -26 -26 -26 -25 -25 -25 -25 -25 -25 -26 -26 -26 -26 -26 -26 -26 -25 -25 -24 -23 -23 -21 -20 -20 -19 -20 -20 -21 -20 -20 -20 -20 -19 -18 -18 -18 -18 -18 -17 -18 -18
-27 -27 -27 -26 -26 -26 -26 -26 -26 -26 -26 -27 -27 -27 -27 -27 -26 -26 -26 -26 -26 -25 -24 -23 -22 -21 -21 -20 -20 -21 -21 -21 -21 -20 -20 -19 -19 -19 -18 -18 -18 -19 -19 -19
-27 -27 -27 -27 -26 -26 -26 -26 -26 -26 -26 -27 -28 -27 -27 -27 -26 -26 -26 -27 -26 -25 -25 -24 -23 -22 -21 -20 -21 -21 -21 -21 -20 -20 -20 -19 -20 -19 -19 -19 -20 -19 -19 -19
-27 -27 -27 -27 -27 -26 -26 -26 -26 -26 -27 -27 -28 -28 -27 -27 -26 -26 -26 -26 -25 -25 -25 -25 -24 -23 -22 -22 -21 -21 -21 -20 -20 -20 -19 -19 -20 -19 -18 -19 -20 -18 -18 -17
-27 -27 -27 -27 -27 -27 -26 -26 -26 -27 -26 -27 -27 -27 -27 -27 -27 -26 -26 -26 -25 -25 -25 -24 -24 -23 -23 -23 -22 -21 -21 -21 -20 -21 -20 -20 -20 -20 -19 -20 -21 -18 -17 -17
-26 -26 -27 -27 -27 -27 -27 -27 -26 -27 -27 -28 -28 -27 -28 -27 -26 -26 -26 -26 -25 -25 -25 -24 -24 -24 -23 -23 -22 -22 -22 -21 -21 -21 -21 -20 -21 -21 -21 -20 -20 -19 -19 -19
-27 -27 -27 -27 -27 -27 -27 -26 -27 -27 -27 -27 -28 -28 -27 -27 -27 -26 -26 -25 -25 -25 -24 -24 -24 -24 -23 -23 -23 -22 -22 -22 -22 -21 -21 -21 -21 -21 -20 -21 -20 -20 -20 -20
-27 -27 -28 -27 -27 -27 -27 -26 -27 -27 -27 -28 -27 -27 -27 -27 -27 -26 -26 -25 -25 -24 -24 -24 -24 -24 -24 -23 -23 -23 -22 -22 -22 -22 -22 -21 -22 -21 -21 -21 -20 -20 -21 -20
-28 -28 -28 -27 -27 -27 -27 -26 -27 -27 -28 -27 -27 -27 -26 -26 -26 -25 -25 -25 -25 -25 -25 -24 -24 -24 -24 -23 -23 -23 -23 -23 -23 -22 -22 -22 -22 -21 -21 -21 -21 -21 -21 -21
-28 -28 -28 -27 -27 -27 -27 -26 -27 -27 -28 -27 -27 -26 -25 -25 -26 -25 -25 -25 -25 -25 -25 -25 -25 -24 -24 -24 -23 -23 -23 -23 -23 -22 -22 -22 -22 -21 -22 -21 -21 -21 -21 -20
-28 -28 -27 -27 -27 -27 -26 -26 -27 -27 -28 -27 -26 -26 -25 -25 -25 -25 -25 -25 -25 -25 -24 -25 -24 -24 -24 -24 -23 -23 -23 -23 -22 -22 -22 -22 -22 -21 -21 -21 -21 -21 -21 -21
-28 -27 -27 -27 -27 -26 -26 -25 -26 -26 -26 -26 -26 -25 -25 -25 -25 -24 -25 -24 -24 -24 -24 -24 -24 -24 -24 -24 -24 -23 -23 -23 -23 -22 -22 -22 -22 -21 -21 -21 -21 -21 -21 -21
-27 -27 -27 -27 -26 -25 -26 -26 -26 -25 -25 -25 -25 -25 -25 -24 -24 -24 -24 -24 -24 -24 -24 -24 -24 -24 -24 -24 -23 -23 -23 -23 -23 -22 -22 -22 -22 -22 -22 -22 -22 -21 -21 -21
-27 -27 -27 -26 -26 -25 -25 -26 -25 -25 -25 -24 -24 -25 -25 -24 -24 -24 -24 -24 -24 -24 -24 -24 -24 -24 -23 -22 -23 -24 -24 -24 -23 -23 -22 -22 -22 -22 -23 -23 -22 -22 -22 -22
-27 -27 -26 -26 -26 -26 -25 -26 -26 -25 -25 -25 -25 -25 -24 -24 -25 -24 -24 -24 -24 -24 -24 -24 -24 -23 -23 -23 -23 -24 -24 -24 -24 -24 -24 -23 -23 -23 -23 -23 -23 -23 -23 -24
-27 -27 -27 -27 -27 -27 -27 -26 -25 -25 -25 -24 -24 -24 -25 -25 -24 -25 -25 -24 -24 -24 -25 -24 -24 -23 -24 -25 -25 -25 -25 -25 -25 -25 -24 -24 -24 -23 -23 -24 -24 -24 -24 -24
-28 -27 -27 -27 -27 -27 -26 -25 -25 -25 -24 -24 -25 -25 -25 -25 -25 -25 -25 -25 -26 -25 -25 -25 -25 -24 -25 -25 -25 -25 -25 -25 -24 -24 -24 -24 -24 -24 -24 -24 -24 -24 -24 -25
-28 -28 -28 -27 -27 -26 -26 -25 -25 -25 -25 -25 -25 -25 -25 -26 -26 -26 -26 -26 -26 -26 -25 -25 -25 -25 -25 -25 -25 -25 -25 -25 -25 -25 -25 -25 -24 -24 -24 -24 -24 -24 -24 -24
-28 -27 -27 -27 -26 -26 -26 -26 -26 -26 -26 -26 -26 -26 -26 -26 -26 -26 -26 -26 -26 -25 -25 -25 -25 -26 -26 -25 -25 -25 -25 -25 -25 -25 -25 -24 -25 -25 -25 -25 -25 -25 -25 -25
-28 -27 -27 -27 -27 -26 -26 -26 -26 -26 -26 -26 -25 -25 -26 -26 -25 -25 -25 -26 -26 -25 -25 -26 -25 -25 -25 -25 -25 -25 -25 -25 -25 -25 -25 -25 -25 -25 -25 -25 -25 -25 -25 -25
-27 -27 -27 -26 -27 -26 -26 -26 -26 -26 -26 -26 -26 -25 -25 -25 -25 -25 -25 -25 -25 -26 -26 -26 -26 -26 -25 -25 -25 -25 -25 -25 -25 -25 -25 -25 -25 -25 -25 -25 -25 -25 -26 -25
-27 -27 -27 -26 -26 -26 -26 -26 -26 -26 -26 -26 -25 -25 -25 -25 -25 -25 -25 -25 -25 -25 -25 -25 -25 -25 -25 -25 -25 -25 -25 -25 -25 -25 -25 -25 -25 -25 -25 -25 -25 -26 -26 -26

GFSNW_500_temp_084.txt.gz
Temp
-30 -30 -30 -28 -27 -26 -26 -25 -25 -25 -24 -24 -24 -23 -23 -23 -23 -22 -21 -21 -21 -21 -20 -20 -20 -19 -19 -19 -18 -18 -18 -19 -18 -18 -17 -17 -16 -16 -16 -16 -15 -15 -14 -14
-30 -31 -31 -29 -28 -27 -26 -26 -26 -25 -25 -25 -24 -24 -23 -23 -23 -22 -22 -22 -21 -21 -21 -20 -21 -20 -19 -19 -19 -19 -18 -19 -19 -18 -18 -18 -17 -18 -17 -16 -16 -15 -15 -15
-30 -31 -31 -30 -29 -28 -27 -26 -26 -26 -26 -25 -24 -24 -23 -23 -23 -23 -22 -22 -22 -22 -21 -21 -21 -20 -19 -20 -19 -19 -19 -19 -19 -18 -18 -18 -18 -18 -18 -17 -16 -16 -15 -14
-30 -30 -30 -30 -29 -28 -27 -26 -25 -26 -26 -25 -25 -24 -24 -24 -23 -23 -23 -22 -22 -22 -21 -21 -21 -21 -20 -20 -20 -20 -19 -19 -19 -19 -18 -17 -18 -17 -17 -17 -17 -16 -16 -15
-29 -29 -29 -29 -28 -28 -27 -26 -25 -26 -25 -25 -25 -25 -24 -24 -24 -24 -23 -23 -23 -22 -22 -22 -21 -21 -20 -19 -19 -20 -19 -20 -19 -19 -20 -19 -18 -18 -17 -17 -17 -17 -18 -17
-28 -28 -28 -28 -28 -27 -27 -26 -26 -26 -26 -26 -25 -25 -25 -25 -25 -25 -24 -25 -24 -23 -24 -22 -21 -21 -20 -20 -20 -20 -21 -20 -20 -20 -20 -20 -18 -19 -19 -18 -18 -18 -18 -19
-27 -27 -27 -27 -27 -27 -26 -27 -27 -26 -26 -26 -26 -26 -26 -26 -26 -25 -25 -25 -25 -25 -24 -23 -22 -21 -21 -20 -20 -21 -21 -20 -20 -20 -20 -19 -19 -20 -20 -19 -19 -19 -19 -18
-27 -27 -27 -27 -27 -27 -27 -27 -27 -26 -26 -26 -26 -26 -26 -27 -26 -26 -25 -25 -24 -25 -25 -25 -24 -23 -22 -21 -21 -21 -21 -21 -20 -20 -20 -20 -20 -20 -20 -19 -20 -20 -19 -18
-27 -27 -27 -27 -27 -27 -27 -27 -27 -27 -26 -26 -27 -27 -27 -27 -27 -27 -26 -25 -25 -26 -26 -26 -25 -24 -24 -23 -21 -21 -21 -21 -20 -20 -20 -20 -20 -21 -20 -20 -20 -19 -19 -18
-26 -27 -27 -27 -27 -27 -27 -28 -27 -27 -26 -27 -27 -27 -27 -27 -27 -26 -26 -26 -26 -26 -26 -26 -25 -24 -24 -23 -22 -22 -22 -21 -20 -21 -20 -20 -20 -20 -20 -20 -20 -18 -19 -17
-26 -26 -27 -27 -27 -27 -27 -28 -27 -27 -27 -27 -27 -27 -27 -27 -27 -27 -26 -26 -26 -26 -25 -25 -25 -24 -24 -23 -23 -22 -23 -21 -20 -20 -20 -19 -20 -21 -20 -20 -19 -19 -19 -18
-27 -27 -27 -27 -26 -27 -27 -27 -28 -28 -27 -27 -27 -27 -27 -27 -27 -26 -26 -26 -26 -26 -25 -25 -25 -24 -24 -23 -23 -23 -22 -22 -22 -21 -22 -22 -21 -21 -20 -21 -21 -20 -20 -19
-27 -27 -27 -27 -27 -27 -27 -28 -28 -28 -27 -27 -27 -27 -27 -27 -27 -26 -26 -26 -26 -25 -25 -25 -25 -24 -24 -24 -23 -23 -23 -22 -22 -22 -21 -21 -20 -20 -21 -21 -20 -20 -20 -20
-27 -27 -27 -27 -27 -27 -27 -27 -27 -28 -28 -27 -28 -27 -27 -27 -27 -27 -26 -26 -26 -25 -25 -25 -24 -24 -24 -24 -23 -23 -22 -22 -22 -22 -21 -21 -21 -21 -21 -21 -21 -21 -20 -20
-28 -28 -28 -28 -28 -28 -28 -27 -27 -28 -28 -28 -28 -27 -28 -27 -26 -26 -26 -26 -26 -25 -25 -25 -24 -24 -24 -24 -24 -23 -23 -22 -22 -22 -22 -22 -21 -22 -22 -21 -21 -21 -21 -21
-28 -28 -28 -28 -28 -28 -27 -28 -27 -28 -28 -28 -28 -28 -27 -26 -26 -26 -26 -26 -26 -25 -25 -25 -24 -24 -24 -24 -23 -23 -23 -23 -23 -23 -23 -22 -22 -22 -22 -22 -21 -21 -21 -21
-29 -28 -28 -28 -28 -27 -27 -27 -28 -28 -28 -28 -28 -27 -26 -26 -26 -25 -25 -25 -25 -25 -25 -24 -25 -24 -24 -24 -24 -23 -23 -23 -23 -23 -23 -22 -22 -22 -22 -22 -22 -21 -21 -21
-29 -28 -28 -28 -27 -27 -27 -27 -28 -28 -28 -27 -27 -27 -26 -25 -25 -25 -25 -25 -25 -25 -25 -25 -24 -24 -24 -24 -24 -24 -23 -23 -23 -23 -23 -23 -23 -22 -22 -22 -22 -21 -21 -21
-28 -28 -27 -27 -27 -27 -27 -27 -28 -28 -27 -25 -26 -26 -26 -25 -25 -25 -25 -24 -25 -25 -25 -25 -25 -24 -24 -24 -24 -24 -24 -24 -24 -23 -23 -23 -23 -23 -22 -22 -22 -22 -22 -22
-27 -27 -27 -27 -27 -27 -27 -27 -27 -27 -26 -26 -26 -25 -25 -25 -25 -24 -25 -25 -25 -25 -25 -25 -25 -24 -24 -24 -24 -24 -24 -24 -24 -24 -24 -24 -24 -24 -23 -23 -23 -23 -23 -23
-27 -27 -27 -27 -27 -27 -27 -26 -26 -26 -25 -25 -25 -25 -25 -25 -25 -24 -24 -24 -25 -25 -24 -25 -24 -24 -24 -25 -25 -25 -25 -25 -24 -24 -24 -24 -24 -24 -24 -24 -24 -24 -24 -23
-27 -27 -27 -27 -27 -26 -26 -25 -25 -25 -24 -24 -24 -24 -24 -25 -24 -24 -24 -25 -25 -24 -25 -25 -23 -24 -25 -25 -25 -25 -25 -25 -25 -25 -25 -24 -24 -24 -24 -24 -24 -24 -24 -24
-28 -27 -27 -27 -26 -26 -25 -24 -24 -24 -24 -24 -24 -24 -25 -25 -25 -26 -25 -25 -25 -25 -25 -25 -25 -24 -25 -25 -25 -25 -25 -25 -25 -25 -24 -24 -24 -24 -24 -24 -24 -24 -24 -24
-27 -27 -27 -26 -26 -25 -25 -25 -25 -25 -25 -25 -25 -25 -25 -26 -26 -25 -25 -25 -26 -26 -25 -25 -25 -25 -25 -25 -25 -25 -25 -25 -25 -25 -25 -25 -25 -25 -25 -25 -24 -24 -24 -25
-27 -27 -27 -26 -26 -26 -25 -25 -25 -25 -26 -26 -25 -25 -25 -25 -25 -25 -25 -25 -25 -26 -26 -26 -26 -26 -26 -25 -25 -25 -25 -25 -25 -25 -25 -25 -25 -25 -25 -25 -25 -25 -25 -25
-27 -27 -27 -26 -26 -26 -26 -26 -26 -26 -25 -25 -25 -25 -25 -25 -25 -25 -25 -25 -25 -26 -26 -25 -25 -25 -25 -25 -25 -25 -25 -25 -25 -25 -25 -25 -25 -25 -25 -25 -25 -25 -25 -25
-27 -26 -26 -26 -26 -26 -26 -26 -26 -26 -26 -26 -25 -25 -25 -25 -25 -25 -25 -25 -25 -25 -25 -25 -25 -25 -25 -25 -25 -25 -25 -25 -25 -25 -26 -25 -25 -25 -26 -25 -25 -25 -26 -26

GFSNW_500_temp_090.txt.gz
Temp
-25 -26 -27 -28 -29 -30 -30 -30 -30 -29 -28 -27 -26 -26 -25 -25 -25 -23 -23 -22 -23 -23 -21 -21 -19 -19 -19 -18 -18 -18 -17 -17 -18 -18 -18 -18 -18 -18 -18 -18 -17 -17 -16 -15
-26 -26 -27 -29 -30 -31 -31 -30 -30 -29 -28 -27 -26 -26 -25 -26 -24 -25 -24 -23 -23 -23 -22 -22 -21 -21 -20 -19 -19 -18 -18 -18 -18 -18 -18 -19 -18 -18 -18 -18 -17 -17 -17 -16
-26 -26 -28 -29 -30 -31 -31 -31 -30 -29 -28 -27 -26 -26 -26 -26 -26 -25 -24 -24 -23 -23 -23 -22 -22 -21 -21 -20 -20 -19 -18 -18 -18 -18 -18 -19 -19 -18 -18 -18 -17 -17 -16 -16
-26 -26 -27 -28 -30 -31 -31 -30 -30 -29 -28 -27 -27 -27 -26 -26 -26 -25 -24 -24 -24 -24 -24 -23 -22 -21 -21 -20 -20 -19 -18 -18 -18 -18 -19 -19 -19 -19 -19 -18 -18 -18 -17 -16
-26 -27 -27 -28 -29 -30 -30 -30 -29 -28 -28 -28 -28 -27 -27 -26 -26 -25 -25 -25 -24 -24 -23 -23 -22 -22 -21 -21 -20 -20 -19 -19 -19 -19 -20 -20 -19 -19 -19 -18 -18 -18 -17 -17
-26 -27 -27 -28 -28 -29 -30 -29 -29 -29 -28 -28 -27 -27 -27 -26 -26 -26 -26 -26 -25 -25 -25 -24 -23 -22 -22 -21 -21 -20 -19 -20 -19 -19 -20 -20 -20 -20 -19 -18 -18 -17 -17 -17
-26 -26 -27 -27 -28 -28 -29 -29 -28 -28 -28 -28 -27 -27 -27 -26 -26 -26 -26 -26 -25 -25 -24 -23 -23 -22 -22 -22 -21 -20 -20 -20 -20 -19 -20 -20 -20 -20 -20 -18 -18 -18 -18 -17
-26 -26 -27 -27 -27 -28 -28 -28 -28 -28 -28 -28 -27 -27 -27 -27 -26 -26 -26 -25 -25 -25 -24 -24 -23 -23 -22 -22 -21 -21 -21 -20 -20 -19 -20 -19 -20 -20 -20 -19 -19 -19 -18 -18
-26 -26 -27 -27 -27 -27 -28 -28 -27 -28 -28 -27 -27 -27 -27 -27 -26 -26 -26 -25 -25 -25 -24 -24 -23 -23 -23 -22 -22 -22 -21 -21 -20 -20 -19 -20 -21 -20 -20 -20 -19 -19 -19 -18
-26 -27 -27 -27 -27 -27 -28 -28 -27 -27 -28 -27 -27 -27 -26 -26 -26 -26 -26 -25 -25 -25 -24 -24 -25 -24 -25 -24 -23 -23 -23 -22 -21 -21 -20 -20 -20 -20 -20 -20 -19 -19 -19 -19
-26 -27 -27 -27 -27 -27 -27 -28 -28 -27 -27 -27 -27 -27 -27 -26 -26 -26 -26 -26 -26 -25 -25 -26 -25 -25 -25 -24 -23 -23 -23 -23 -23 -22 -21 -20 -21 -21 -21 -20 -20 -19 -20 -20
-27 -27 -27 -27 -27 -27 -27 -27 -28 -28 -28 -27 -27 -27 -27 -27 -27 -27 -27 -27 -27 -26 -26 -25 -25 -25 -24 -24 -23 -23 -22 -23 -23 -23 -22 -22 -22 -21 -20 -20 -20 -20 -20 -20
-27 -27 -27 -27 -27 -27 -27 -27 -27 -28 -28 -28 -27 -26 -26 -26 -27 -27 -27 -27 -27 -27 -26 -26 -25 -25 -25 -25 -24 -23 -22 -23 -23 -23 -23 -22 -22 -22 -22 -21 -21 -21 -21 -21
-27 -27 -27 -27 -27 -27 -27 -27 -27 -27 -28 -28 -28 -27 -27 -27 -26 -27 -27 -27 -27 -26 -26 -26 -25 -26 -25 -25 -24 -24 -23 -23 -23 -23 -23 -23 -23 -22 -22 -21 -21 -21 -21 -20
-27 -27 -28 -28 -28 -28 -27 -27 -27 -28 -28 -28 -28 -28 -27 -27 -26 -27 -27 -27 -27 -26 -26 -26 -26 -25 -25 -25 -24 -24 -23 -23 -23 -22 -22 -23 -23 -22 -22 -22 -21 -21 -21 -21
-28 -28 -28 -28 -28 -28 -27 -27 -27 -27 -28 -28 -28 -28 -28 -27 -27 -27 -27 -27 -27 -26 -26 -26 -26 -25 -25 -24 -24 -24 -24 -24 -24 -23 -23 -22 -22 -22 -22 -22 -21 -21 -21 -22
-28 -28 -29 -29 -28 -28 -28 -27 -28 -28 -28 -28 -28 -28 -28 -27 -27 -27 -27 -27 -27 -26 -26 -26 -26 -25 -25 -25 -24 -24 -24 -24 -24 -23 -24 -23 -23 -23 -22 -22 -22 -22 -22 -22
-29 -29 -29 -29 -29 -29 -28 -28 -28 -28 -28 -28 -28 -28 -28 -28 -28 -27 -27 -27 -26 -26 -26 -26 -26 -25 -25 -25 -25 -24 -24 -24 -24 -24 -24 -24 -23 -23 -23 -23 -23 -22 -23 -22
-29 -29 -29 -29 -29 -29 -28 -28 -28 -28 -28 -28 -28 -28 -28 -28 -27 -27 -27 -26 -26 -26 -26 -26 -25 -25 -24 -25 -25 -24 -24 -24 -24 -24 -24 -24 -23 -23 -23 -22 -22 -22 -22 -22
-29 -29 -29 -29 -29 -29 -29 -28 -28 -28 -28 -28 -28 -27 -27 -27 -27 -27 -26 -26 -26 -26 -26 -26 -25 -25 -25 -25 -25 -25 -24 -24 -23 -23 -23 -23 -23 -23 -23 -23 -22 -22 -22 -22
-29 -29 -29 -29 -29 -29 -29 -28 -28 -28 -27 -27 -27 -27 -27 -27 -27 -26 -26 -26 -26 -26 -26 -26 -25 -25 -25 -25 -25 -25 -25 -24 -24 -24 -24 -24 -23 -23 -23 -23 -23 -23 -23 -23
-29 -29 -29 -29 -29 -29 -28 -28 -28 -27 -27 -27 -27 -27 -27 -27 -26 -26 -26 -26 -26 -26 -26 -26 -25 -25 -25 -25 -25 -25 -25 -25 -25 -25 -24 -24 -24 -24 -24 -24 -24 -24 -24 -24
-29 -29 -29 -29 -28 -28 -28 -27 -27 -27 -27 -27 -27 -26 -26 -26 -26 -26 -26 -26 -26 -26 -26 -26 -26 -26 -26 -26 -25 -25 -25 -25 -25 -25 -25 -25 -25 -25 -25 -25 -25 -25 -25 -25
-28 -28 -28 -28 -28 -27 -27 -27 -27 -27 -27 -26 -26 -26 -26 -26 -26 -26 -26 -26 -26 -26 -26 -26 -26 -26 -26 -26 -26 -26 -26 -26 -26 -25 -25 -25 -25 -25 -25 -25 -25 -25 -25 -25
-28 -28 -28 -27 -27 -26 -26 -26 -26 -26 -26 -26 -26 -26 -26 -26 -26 -26 -26 -26 -26 -26 -26 -26 -26 -26 -26 -26 -26 -26 -26 -26 -26 -25 -26 -25 -25 -25 -25 -25 -25 -25 -25 -25
-27 -27 -27 -27 -26 -26 -26 -26 -26 -26 -26 -26 -26 -26 -26 -26 -26 -26 -26 -26 -26 -25 -26 -26 -26 -26 -26 -26 -26 -26 -26 -26 -26 -26 -26 -26 -26 -26 -26 -26 -26 -26 -26 -26
-27 -27 -27 -26 -26 -26 -26 -26 -26 -26 -26 -26 -26 -26 -26 -26 -26 -25 -25 -25 -25 -25 -25 -25 -25 -25 -25 -25 -25 -26 -26 -26 -26 -26 -27 -27 -27 -27 -27 -27 -27 -27 -27 -27

GFSNW_500_temp_093.txt.gz
Temp
-25 -25 -26 -26 -26 -28 -29 -31 -30 -30 -30 -29 -28 -27 -26 -26 -25 -25 -23 -22 -22 -22 -22 -21 -21 -21 -21 -20 -20 -19 -18 -18 -18 -18 -17 -18 -17 -17 -18 -18 -18 -18 -17 -17
-25 -25 -26 -26 -27 -28 -30 -31 -31 -30 -30 -29 -28 -27 -27 -26 -24 -24 -24 -23 -23 -22 -22 -22 -22 -22 -21 -20 -20 -19 -19 -18 -19 -18 -18 -18 -18 -18 -19 -18 -18 -17 -18 -16
-25 -25 -26 -26 -27 -29 -30 -31 -31 -30 -30 -29 -28 -27 -27 -27 -26 -24 -24 -23 -23 -23 -23 -23 -22 -22 -22 -21 -21 -20 -19 -19 -19 -19 -18 -18 -18 -19 -19 -19 -18 -18 -18 -17
-25 -25 -26 -26 -27 -28 -29 -31 -30 -30 -30 -29 -28 -27 -27 -27 -26 -25 -25 -24 -24 -24 -23 -23 -23 -22 -22 -22 -21 -21 -20 -20 -19 -19 -18 -18 -18 -18 -19 -19 -18 -18 -17 -17
-25 -26 -26 -26 -27 -28 -28 -29 -29 -29 -29 -29 -28 -28 -27 -27 -27 -26 -25 -25 -25 -24 -24 -23 -23 -23 -23 -22 -21 -21 -20 -20 -20 -19 -18 -18 -18 -18 -19 -19 -18 -18 -18 -17
-25 -26 -26 -26 -27 -28 -28 -28 -29 -29 -28 -29 -28 -28 -28 -27 -27 -26 -26 -25 -25 -25 -24 -24 -23 -23 -23 -22 -22 -22 -21 -20 -20 -20 -19 -18 -19 -19 -19 -19 -19 -18 -18 -17
-26 -26 -26 -26 -27 -27 -28 -28 -28 -28 -28 -28 -28 -27 -27 -27 -27 -26 -26 -26 -26 -25 -24 -24 -24 -23 -23 -23 -22 -22 -21 -21 -20 -20 -19 -18 -20 -19 -19 -18 -18 -19 -18 -18
-26 -26 -26 -26 -27 -27 -27 -28 -28 -28 -28 -28 -28 -27 -27 -27 -26 -26 -26 -26 -26 -25 -25 -24 -24 -24 -24 -23 -23 -22 -22 -21 -20 -19 -19 -18 -20 -19 -19 -19 -19 -19 -18 -18
-26 -26 -26 -26 -27 -27 -27 -28 -28 -28 -28 -28 -28 -28 -27 -27 -26 -26 -26 -26 -26 -26 -25 -25 -25 -25 -24 -23 -23 -22 -22 -21 -20 -20 -19 -19 -20 -19 -20 -19 -19 -19 -18 -18
-26 -27 -27 -27 -27 -27 -27 -27 -28 -28 -28 -28 -28 -27 -27 -27 -27 -27 -26 -26 -26 -26 -26 -25 -24 -24 -24 -23 -23 -22 -22 -21 -21 -20 -20 -19 -20 -20 -20 -20 -20 -19 -19 -19
-26 -27 -27 -27 -27 -27 -27 -27 -28 -28 -28 -27 -27 -27 -27 -27 -27 -26 -26 -26 -26 -25 -25 -25 -25 -24 -24 -24 -24 -24 -23 -22 -21 -21 -20 -19 -21 -20 -20 -19 -20 -20 -20 -19
-27 -27 -27 -27 -27 -27 -27 -28 -27 -28 -28 -27 -27 -27 -27 -27 -27 -27 -26 -26 -26 -26 -26 -26 -25 -25 -25 -25 -24 -24 -23 -23 -22 -23 -22 -22 -22 -20 -20 -20 -20 -20 -20 -20
-27 -27 -27 -27 -27 -27 -27 -28 -27 -28 -28 -28 -28 -27 -27 -26 -27 -27 -27 -27 -27 -27 -27 -26 -26 -26 -25 -25 -24 -23 -23 -23 -23 -22 -22 -23 -23 -22 -21 -21 -21 -21 -20 -20
-27 -27 -27 -27 -28 -27 -27 -27 -27 -27 -28 -28 -28 -28 -27 -27 -27 -27 -27 -27 -27 -27 -26 -27 -26 -26 -25 -25 -24 -24 -24 -23 -23 -23 -22 -23 -23 -23 -23 -23 -21 -21 -21 -21
-27 -27 -28 -28 -28 -27 -27 -27 -28 -27 -28 -28 -28 -28 -27 -27 -27 -27 -27 -27 -27 -27 -27 -26 -26 -26 -26 -26 -25 -25 -24 -24 -23 -23 -23 -23 -23 -23 -23 -23 -22 -22 -21 -21
-27 -28 -28 -28 -28 -28 -28 -28 -27 -27 -27 -28 -28 -28 -28 -28 -27 -27 -27 -27 -28 -27 -27 -27 -27 -26 -26 -25 -25 -24 -24 -24 -24 -23 -23 -23 -23 -23 -23 -23 -23 -22 -22 -22
-28 -28 -28 -28 -28 -28 -28 -28 -27 -28 -28 -28 -28 -28 -28 -28 -27 -27 -27 -27 -27 -27 -27 -27 -26 -26 -26 -26 -25 -25 -25 -25 -24 -24 -24 -23 -23 -23 -23 -23 -23 -22 -22 -22
-27 -28 -28 -28 -29 -29 -28 -28 -28 -28 -28 -28 -28 -28 -28 -28 -28 -27 -27 -28 -27 -27 -27 -27 -26 -26 -26 -25 -25 -25 -25 -25 -24 -24 -24 -24 -24 -24 -23 -23 -23 -23 -22 -22
-28 -29 -29 -29 -29 -29 -29 -29 -29 -29 -28 -28 -28 -28 -28 -28 -28 -28 -27 -27 -27 -27 -27 -27 -26 -26 -26 -26 -25 -25 -25 -25 -25 -24 -24 -24 -24 -24 -24 -23 -23 -23 -23 -23
-29 -30 -29 -29 -29 -29 -29 -29 -29 -29 -29 -28 -28 -28 -28 -28 -28 -28 -28 -27 -26 -26 -26 -26 -26 -25 -25 -25 -25 -25 -25 -25 -25 -25 -24 -24 -24 -24 -24 -24 -23 -23 -23 -23
-30 -30 -30 -29 -29 -29 -29 -29 -29 -29 -28 -28 -28 -28 -28 -28 -27 -27 -27 -27 -26 -26 -26 -26 -26 -26 -26 -25 -25 -25 -24 -24 -24 -24 -24 -24 -24 -24 -24 -24 -24 -24 -24 -24
-29 -29 -29 -29 -29 -29 -29 -29 -29 -29 -28 -28 -28 -28 -28 -28 -27 -27 -26 -26 -26 -26 -26 -26 -25 -26 -25 -25 -25 -25 -24 -24 -24 -24 -24 -24 -24 -24 -24 -24 -24 -24 -24 -24
-29 -29 -29 -29 -29 -29 -29 -28 -28 -28 -27 -27 -28 -28 -27 -27 -27 -27 -26 -26 -26 -26 -26 -26 -26 -25 -25 -25 -25 -25 -25 -25 -25 -25 -25 -25 -25 -25 -25 -24 -24 -24 -24 -24
-29 -29 -28 -29 -29 -28 -28 -28 -28 -28 -27 -27 -27 -27 -27 -27 -27 -27 -27 -26 -26 -26 -26 -26 -26 -26 -26 -26 -26 -26 -26 -26 -26 -26 -26 -26 -26 -26 -25 -25 -25 -25 -25 -25
-29 -29 -29 -28 -28 -28 -28 -28 -27 -27 -27 -27 -27 -27 -27 -27 -26 -26 -26 -26 -26 -26 -26 -26 -26 -26 -26 -26 -26 -26 -26 -26 -26 -26 -26 -26 -26 -26 -26 -26 -26 -26 -26 -26
-28 -28 -28 -28 -28 -27 -27 -27 -27 -27 -27 -27 -27 -27 -26 -26 -26 -26 -26 -26 -26 -26 -26 -25 -26 -26 -26 -26 -26 -26 -26 -26 -26 -26 -26 -26 -26 -27 -27 -27 -27 -27 -27 -27
-28 -28 -28 -27 -27 -27 -26 -26 -26 -26 -26 -26 -26 -26 -26 -26 -26 -26 -26 -26 -26 -26 -26 -25 -25 -25 -25 -25 -26 -26 -26 -26 -27 -27 -27 -27 -27 -27 -27 -27 -28 -28 -28 -28

GFSNW_500_temp_096.txt.gz
Temp
-24 -24 -24 -24 -25 -25 -25 -26 -27 -30 -30 -30 -29 -29 -28 -27 -26 -25 -24 -24 -23 -22 -22 -22 -22 -21 -21 -20 -20 -20 -19 -19 -19 -19 -18 -18 -18 -18 -18 -17 -17 -18 -17 -16
-24 -24 -24 -25 -25 -25 -25 -26 -29 -31 -31 -30 -30 -29 -28 -27 -26 -25 -25 -24 -23 -22 -22 -22 -22 -22 -21 -21 -21 -21 -20 -20 -19 -19 -19 -19 -18 -18 -18 -20 -18 -18 -18 -17
-24 -24 -25 -25 -25 -25 -25 -27 -29 -31 -30 -31 -30 -28 -28 -27 -27 -25 -25 -25 -23 -22 -22 -22 -22 -21 -21 -21 -21 -21 -21 -20 -20 -20 -19 -19 -18 -18 -19 -19 -19 -18 -18 -17
-24 -25 -25 -25 -25 -26 -26 -27 -29 -30 -30 -30 -29 -28 -28 -27 -27 -25 -25 -25 -25 -23 -22 -22 -22 -22 -22 -23 -22 -22 -22 -21 -21 -20 -19 -19 -19 -19 -19 -19 -19 -18 -18 -18
-25 -25 -25 -25 -26 -26 -26 -27 -28 -28 -29 -29 -29 -28 -28 -28 -27 -27 -26 -25 -25 -23 -23 -23 -23 -22 -23 -22 -22 -22 -22 -21 -21 -21 -20 -19 -19 -19 -19 -19 -19 -18 -18 -18
-25 -25 -25 -26 -26 -26 -26 -27 -27 -28 -28 -28 -28 -28 -27 -28 -27 -27 -26 -26 -25 -25 -25 -24 -23 -23 -23 -23 -23 -22 -22 -22 -21 -21 -20 -19 -19 -19 -19 -19 -19 -19 -18 -18
-25 -25 -25 -26 -26 -26 -26 -27 -27 -28 -28 -28 -28 -28 -28 -28 -28 -27 -27 -26 -25 -25 -25 -25 -24 -24 -23 -23 -23 -22 -22 -21 -21 -20 -20 -19 -20 -19 -19 -19 -19 -19 -19 -18
-25 -25 -25 -26 -26 -27 -26 -27 -27 -28 -28 -28 -28 -28 -27 -27 -27 -27 -26 -26 -25 -25 -25 -25 -25 -24 -24 -24 -23 -23 -22 -22 -21 -20 -20 -19 -20 -19 -19 -19 -19 -19 -19 -19
-25 -25 -26 -26 -27 -27 -26 -27 -27 -28 -28 -29 -28 -28 -27 -27 -27 -27 -26 -26 -25 -25 -25 -25 -24 -24 -24 -24 -24 -23 -23 -22 -21 -20 -20 -19 -20 -20 -19 -19 -19 -19 -19 -18
-25 -25 -26 -26 -27 -27 -27 -27 -27 -28 -28 -28 -28 -28 -28 -27 -27 -27 -27 -26 -26 -26 -25 -25 -25 -25 -25 -25 -25 -24 -23 -23 -22 -21 -20 -20 -20 -20 -19 -19 -19 -19 -19 -19
-26 -26 -26 -27 -27 -27 -27 -27 -27 -28 -28 -28 -28 -28 -28 -27 -27 -27 -26 -26 -26 -26 -26 -26 -25 -25 -25 -25 -24 -24 -24 -23 -22 -21 -21 -20 -21 -20 -20 -20 -20 -19 -19 -19
-26 -26 -26 -27 -27 -27 -27 -27 -27 -28 -28 -28 -28 -28 -28 -27 -27 -27 -27 -26 -26 -26 -26 -26 -25 -25 -25 -25 -24 -24 -24 -23 -23 -23 -22 -22 -22 -21 -20 -20 -20 -20 -20 -20
-26 -26 -27 -27 -27 -27 -27 -27 -27 -28 -28 -28 -28 -27 -27 -27 -27 -27 -27 -27 -27 -26 -26 -26 -26 -25 -25 -25 -25 -24 -24 -24 -24 -23 -23 -22 -23 -22 -22 -21 -21 -21 -20 -20
-26 -26 -27 -27 -27 -27 -27 -27 -27 -27 -28 -28 -28 -28 -28 -27 -27 -27 -27 -27 -27 -27 -27 -27 -26 -26 -26 -25 -25 -25 -25 -24 -24 -24 -23 -23 -23 -23 -23 -23 -23 -22 -21 -21
-26 -27 -27 -27 -27 -28 -28 -28 -28 -27 -28 -28 -28 -28 -28 -28 -27 -27 -27 -27 -27 -27 -27 -27 -26 -26 -26 -26 -25 -25 -25 -24 -24 -24 -24 -23 -23 -23 -23 -24 -23 -23 -23 -22
-27 -27 -27 -28 -28 -28 -28 -28 -28 -28 -28 -28 -28 -28 -28 -28 -28 -27 -27 -27 -27 -27 -27 -27 -27 -26 -26 -26 -26 -25 -25 -25 -24 -24 -24 -23 -23 -23 -23 -23 -23 -23 -23 -23
-27 -27 -28 -28 -28 -28 -28 -28 -28 -28 -28 -27 -28 -28 -28 -28 -28 -28 -27 -27 -27 -27 -27 -27 -27 -27 -26 -26 -25 -25 -25 -25 -24 -24 -24 -24 -24 -24 -24 -23 -23 -23 -23 -23
-28 -28 -28 -28 -28 -28 -28 -28 -28 -28 -28 -28 -27 -27 -28 -28 -28 -28 -28 -27 -27 -27 -27 -28 -27 -27 -26 -26 -26 -26 -25 -25 -25 -25 -24 -24 -24 -24 -24 -24 -24 -23 -23 -23
-28 -28 -28 -28 -28 -28 -28 -29 -29 -28 -29 -28 -27 -28 -28 -28 -28 -28 -28 -27 -27 -27 -27 -27 -27 -27 -26 -26 -26 -26 -25 -25 -25 -25 -25 -24 -24 -24 -24 -24 -24 -24 -23 -23
-28 -28 -28 -28 -29 -29 -29 -29 -29 -29 -29 -28 -28 -28 -28 -28 -28 -28 -28 -28 -28 -27 -27 -27 -26 -26 -26 -26 -26 -26 -25 -25 -25 -25 -25 -24 -25 -24 -24 -24 -24 -24 -24 -24
-28 -29 -29 -29 -29 -29 -29 -29 -29 -29 -28 -28 -28 -28 -28 -28 -28 -28 -28 -28 -28 -27 -27 -27 -26 -26 -26 -26 -26 -26 -25 -25 -25 -25 -24 -24 -25 -25 -24 -24 -24 -24 -24 -24
-29 -29 -30 -29 -29 -29 -29 -29 -29 -29 -28 -28 -28 -28 -28 -28 -28 -28 -28 -28 -28 -27 -26 -26 -26 -26 -26 -26 -26 -26 -25 -24 -24 -25 -25 -25 -25 -25 -25 -25 -25 -25 -25 -24
-30 -30 -30 -29 -29 -29 -29 -29 -29 -28 -28 -28 -28 -28 -28 -28 -28 -28 -27 -27 -26 -26 -26 -26 -26 -26 -26 -26 -26 -26 -25 -25 -25 -25 -25 -25 -25 -25 -25 -25 -25 -25 -25 -25
-30 -30 -30 -29 -29 -29 -29 -29 -29 -28 -29 -28 -28 -28 -28 -28 -28 -27 -27 -26 -26 -26 -26 -26 -26 -25 -25 -25 -25 -25 -25 -25 -25 -25 -25 -26 -26 -26 -26 -26 -26 -26 -26 -26
-29 -29 -29 -29 -29 -29 -29 -29 -29 -29 -28 -28 -28 -28 -27 -27 -27 -27 -27 -26 -26 -26 -26 -26 -26 -26 -26 -26 -26 -26 -26 -26 -26 -26 -26 -26 -26 -26 -26 -26 -26 -26 -26 -26
-29 -29 -29 -29 -29 -29 -29 -28 -28 -28 -28 -27 -27 -27 -27 -27 -27 -27 -26 -26 -26 -26 -26 -26 -26 -25 -25 -25 -25 -25 -25 -26 -26 -26 -26 -27 -27 -27 -27 -27 -27 -27 -27 -27
-29 -29 -29 -29 -29 -28 -28 -28 -27 -27 -27 -27 -27 -27 -27 -27 -27 -27 -26 -26 -26 -26 -26 -26 -26 -26 -26 -26 -26 -26 -26 -26 -26 -27 -27 -27 -27 -27 -28 -28 -28 -28 -28 -29

GFSNW_500_temp_102.txt.gz
Temp
-23 -23 -23 -23 -23 -22 -23 -23 -23 -24 -24 -25 -27 -29 -28 -28 -27 -26 -25 -25 -24 -24 -23 -23 -22 -22 -22 -23 -23 -23 -22 -22 -21 -21 -20 -20 -20 -19 -18 -18 -18 -17 -17 -17
-23 -23 -23 -23 -23 -23 -23 -23 -24 -24 -24 -25 -27 -27 -27 -27 -26 -26 -25 -25 -24 -24 -23 -23 -22 -22 -23 -23 -23 -22 -22 -22 -21 -21 -20 -20 -19 -19 -18 -18 -18 -17 -17 -17
-23 -23 -23 -23 -23 -23 -23 -23 -24 -24 -25 -26 -26 -27 -27 -26 -25 -26 -26 -25 -24 -23 -22 -22 -22 -22 -22 -22 -22 -22 -22 -22 -21 -21 -20 -20 -19 -19 -19 -18 -18 -18 -18 -18
-24 -24 -23 -23 -23 -23 -24 -24 -24 -24 -25 -26 -26 -26 -26 -26 -26 -26 -26 -25 -25 -23 -23 -23 -22 -22 -22 -22 -22 -22 -22 -21 -22 -22 -21 -21 -20 -20 -19 -19 -18 -18 -19 -18
-24 -24 -24 -23 -23 -24 -24 -24 -24 -24 -25 -26 -26 -25 -26 -27 -26 -26 -26 -25 -25 -24 -23 -23 -22 -22 -22 -22 -21 -22 -21 -21 -21 -21 -21 -21 -21 -20 -20 -19 -19 -18 -19 -18
-24 -24 -24 -24 -24 -24 -24 -24 -24 -25 -25 -26 -26 -26 -26 -27 -26 -26 -25 -25 -25 -25 -24 -23 -22 -22 -22 -21 -21 -21 -21 -21 -22 -21 -22 -22 -21 -20 -20 -20 -19 -19 -19 -18
-24 -24 -24 -24 -24 -24 -24 -24 -24 -25 -25 -26 -26 -26 -26 -26 -26 -26 -26 -25 -26 -25 -24 -24 -23 -22 -22 -22 -23 -23 -22 -22 -22 -22 -21 -21 -21 -21 -20 -20 -19 -19 -19 -19
-24 -24 -24 -24 -24 -24 -24 -25 -25 -25 -25 -26 -26 -26 -26 -26 -26 -26 -26 -26 -26 -26 -25 -25 -25 -25 -25 -24 -23 -23 -23 -22 -22 -22 -21 -21 -21 -20 -20 -20 -19 -19 -19 -19
-24 -24 -24 -25 -25 -25 -25 -25 -25 -25 -26 -26 -26 -27 -27 -27 -26 -26 -26 -26 -26 -26 -25 -25 -25 -24 -24 -23 -23 -23 -23 -23 -22 -22 -22 -22 -21 -20 -20 -20 -19 -19 -19 -19
-25 -25 -25 -25 -25 -25 -25 -25 -25 -26 -26 -26 -26 -27 -27 -27 -27 -27 -27 -26 -26 -26 -25 -25 -25 -24 -24 -24 -23 -23 -22 -22 -23 -22 -22 -22 -21 -21 -20 -20 -19 -19 -19 -19
-25 -25 -25 -25 -25 -25 -25 -25 -26 -26 -26 -26 -26 -27 -27 -27 -27 -27 -27 -27 -26 -26 -26 -25 -25 -24 -24 -23 -23 -23 -23 -23 -23 -23 -22 -22 -22 -21 -21 -21 -20 -20 -19 -19
-26 -25 -25 -25 -25 -26 -26 -26 -26 -26 -26 -27 -27 -27 -27 -27 -27 -27 -27 -27 -27 -26 -26 -26 -25 -25 -24 -24 -24 -23 -23 -23 -23 -23 -23 -23 -22 -22 -21 -21 -20 -20 -20 -19
-26 -26 -26 -26 -26 -26 -26 -26 -27 -27 -27 -27 -27 -27 -27 -27 -27 -27 -27 -27 -27 -26 -26 -25 -25 -25 -24 -24 -24 -24 -24 -24 -24 -24 -24 -23 -23 -22 -22 -21 -21 -20 -20 -20
-26 -26 -26 -26 -26 -26 -26 -27 -27 -27 -27 -27 -27 -27 -27 -27 -27 -27 -27 -27 -26 -26 -26 -26 -26 -25 -25 -25 -25 -25 -25 -24 -24 -24 -24 -23 -23 -23 -23 -22 -22 -21 -21 -20
-27 -27 -27 -27 -27 -26 -27 -27 -27 -27 -27 -27 -27 -28 -28 -28 -28 -27 -27 -27 -26 -26 -26 -26 -26 -26 -25 -25 -25 -25 -25 -25 -25 -24 -24 -24 -24 -23 -23 -23 -22 -22 -22 -22
-27 -27 -27 -27 -27 -27 -27 -27 -27 -27 -28 -27 -27 -28 -28 -28 -28 -28 -27 -27 -27 -27 -26 -26 -26 -26 -26 -26 -26 -26 -26 -25 -25 -25 -24 -24 -24 -24 -24 -23 -23 -23 -23 -23
-27 -27 -27 -27 -27 -27 -27 -27 -28 -28 -28 -28 -28 -27 -28 -28 -28 -28 -27 -27 -27 -27 -26 -26 -26 -27 -27 -27 -26 -26 -26 -26 -25 -25 -25 -24 -24 -24 -24 -23 -23 -23 -23 -23
-27 -28 -28 -28 -28 -28 -28 -28 -28 -28 -28 -28 -28 -28 -28 -28 -28 -28 -28 -27 -27 -27 -27 -27 -27 -27 -27 -27 -27 -27 -26 -26 -26 -26 -25 -25 -25 -25 -25 -24 -24 -24 -24 -24
-28 -28 -28 -28 -28 -28 -28 -28 -28 -28 -28 -28 -28 -28 -28 -28 -28 -27 -27 -27 -27 -27 -27 -27 -27 -27 -27 -27 -27 -27 -26 -26 -26 -26 -25 -25 -25 -25 -25 -24 -24 -24 -24 -24
-29 -29 -28 -28 -28 -29 -29 -29 -28 -28 -28 -28 -28 -28 -28 -28 -28 -27 -27 -27 -27 -27 -27 -27 -26 -27 -27 -27 -27 -27 -26 -26 -26 -26 -25 -25 -25 -25 -25 -24 -24 -24 -24 -24
-29 -29 -28 -28 -29 -29 -29 -29 -29 -28 -28 -28 -28 -28 -28 -28 -28 -28 -28 -28 -28 -27 -27 -27 -27 -27 -27 -27 -27 -27 -26 -26 -26 -26 -25 -25 -25 -25 -25 -25 -24 -24 -24 -24
-29 -29 -29 -29 -29 -29 -29 -29 -28 -28 -28 -28 -28 -28 -28 -28 -28 -28 -28 -28 -28 -28 -27 -27 -27 -27 -27 -27 -27 -26 -26 -26 -26 -26 -26 -25 -25 -25 -25 -25 -25 -25 -26 -26
-30 -30 -29 -29 -29 -29 -29 -28 -28 -28 -28 -28 -29 -29 -29 -29 -28 -28 -28 -28 -28 -28 -27 -27 -27 -27 -27 -27 -27 -27 -26 -26 -26 -26 -26 -26 -26 -25 -25 -25 -26 -26 -26 -26
-29 -29 -29 -29 -29 -29 -28 -28 -29 -29 -29 -29 -29 -29 -29 -29 -29 -29 -28 -28 -27 -27 -27 -27 -27 -27 -27 -27 -27 -26 -26 -26 -26 -26 -26 -26 -26 -26 -26 -26 -26 -26 -27 -27
-29 -29 -29 -29 -29 -29 -29 -29 -29 -29 -29 -29 -29 -29 -29 -29 -28 -28 -28 -27 -27 -27 -27 -27 -27 -27 -26 -26 -26 -26 -26 -26 -26 -26 -26 -26 -26 -26 -26 -26 -26 -26 -27 -27
-29 -29 -29 -29 -29 -29 -29 -29 -29 -29 -29 -29 -29 -29 -28 -28 -28 -27 -27 -27 -27 -27 -27 -27 -26 -26 -26 -26 -26 -26 -26 -26 -26 -26 -26 -26 -26 -26 -26 -27 -27 -27 -28 -28
-29 -29 -29 -30 -29 -29 -29 -29 -29 -29 -29 -29 -28 -28 -28 -28 -27 -27 -27 -27 -27 -27 -27 -27 -26 -26 -26 -26 -26 -26 -26 -26 -26 -26 -26 -26 -26 -27 -27 -28 -28 -29 -29 -29

GFSNW_500_temp_105.txt.gz
Temp
-23 -23 -23 -23 -23 -22 -22 -22 -22 -22 -22 -23 -23 -23 -24 -25 -25 -25 -25 -24 -24 -23 -23 -23 -23 -22 -24 -23 -23 -22 -22 -22 -20 -20 -21 -21 -21 -21 -20 -20 -19 -18 -18 -18
-24 -23 -23 -23 -23 -22 -22 -22 -22 -22 -23 -23 -23 -24 -24 -25 -25 -25 -25 -24 -24 -24 -23 -22 -22 -22 -22 -23 -23 -23 -22 -21 -20 -20 -20 -21 -21 -20 -20 -20 -20 -19 -18 -18
-24 -24 -24 -23 -23 -23 -23 -22 -23 -23 -23 -23 -23 -24 -24 -25 -25 -25 -25 -24 -24 -23 -23 -23 -22 -22 -22 -22 -22 -22 -21 -21 -20 -20 -20 -21 -21 -20 -20 -20 -19 -19 -19 -19
-24 -24 -24 -23 -23 -23 -23 -23 -23 -23 -23 -23 -24 -24 -24 -25 -25 -25 -25 -24 -24 -23 -23 -22 -22 -22 -22 -22 -22 -21 -21 -21 -20 -21 -20 -21 -21 -20 -20 -20 -19 -19 -20 -18
-25 -24 -24 -23 -23 -23 -23 -23 -23 -23 -23 -24 -24 -24 -25 -25 -25 -25 -25 -25 -24 -23 -22 -22 -22 -22 -22 -22 -22 -22 -21 -21 -21 -21 -21 -21 -21 -20 -20 -20 -20 -20 -19 -19
-24 -24 -24 -24 -23 -23 -23 -23 -23 -24 -24 -24 -24 -24 -24 -25 -25 -25 -25 -25 -24 -24 -23 -23 -22 -22 -22 -22 -21 -21 -22 -21 -21 -21 -21 -21 -21 -21 -21 -21 -20 -19 -19 -19
-25 -24 -24 -24 -23 -23 -24 -24 -24 -24 -24 -24 -24 -24 -24 -25 -25 -25 -25 -25 -25 -25 -23 -23 -22 -22 -22 -22 -21 -21 -21 -21 -21 -21 -21 -21 -21 -21 -21 -21 -20 -19 -19 -18
-25 -25 -24 -24 -24 -24 -24 -24 -24 -24 -24 -24 -24 -25 -25 -25 -25 -25 -25 -25 -25 -26 -25 -24 -25 -23 -23 -23 -23 -22 -22 -22 -22 -22 -22 -21 -22 -21 -21 -20 -20 -19 -19 -19
-25 -25 -24 -24 -24 -24 -24 -24 -24 -24 -24 -25 -25 -25 -25 -26 -25 -26 -25 -25 -25 -25 -25 -25 -25 -25 -24 -24 -23 -23 -23 -23 -22 -22 -22 -21 -21 -21 -21 -20 -20 -19 -19 -19
-25 -25 -24 -24 -24 -25 -25 -25 -25 -25 -25 -25 -25 -25 -26 -26 -26 -26 -26 -25 -25 -25 -25 -25 -24 -24 -24 -23 -23 -22 -22 -22 -22 -22 -22 -22 -22 -21 -21 -21 -20 -20 -20 -20
-25 -25 -25 -25 -25 -25 -25 -25 -25 -25 -25 -25 -25 -25 -26 -26 -26 -26 -27 -26 -26 -25 -25 -25 -24 -24 -24 -23 -23 -23 -22 -22 -22 -22 -22 -22 -22 -22 -21 -21 -21 -20 -20 -20
-25 -25 -25 -25 -25 -25 -25 -25 -25 -25 -26 -26 -26 -26 -26 -26 -26 -27 -27 -27 -26 -26 -25 -25 -25 -24 -24 -24 -24 -23 -23 -23 -23 -23 -23 -22 -22 -22 -21 -21 -21 -20 -20 -20
-26 -25 -25 -25 -25 -25 -25 -26 -26 -25 -26 -26 -26 -26 -26 -26 -27 -27 -27 -27 -26 -26 -26 -25 -25 -24 -24 -24 -24 -23 -23 -23 -23 -23 -23 -23 -23 -23 -22 -22 -21 -21 -21 -20
-26 -26 -26 -26 -26 -26 -26 -26 -26 -26 -26 -27 -26 -26 -27 -27 -27 -27 -27 -27 -27 -27 -26 -26 -26 -25 -25 -24 -24 -24 -24 -24 -24 -24 -24 -24 -23 -23 -23 -23 -23 -22 -22 -21
-27 -27 -26 -26 -26 -26 -26 -26 -26 -26 -27 -27 -27 -27 -27 -27 -27 -27 -27 -27 -27 -27 -26 -26 -26 -26 -26 -25 -25 -25 -25 -25 -24 -24 -24 -24 -24 -23 -23 -23 -23 -23 -22 -22
-27 -27 -27 -27 -27 -27 -27 -26 -27 -27 -27 -27 -27 -27 -27 -27 -28 -28 -28 -27 -27 -27 -27 -26 -26 -26 -26 -26 -26 -25 -25 -25 -25 -24 -24 -24 -24 -24 -24 -24 -23 -23 -23 -23
-27 -27 -27 -27 -27 -27 -27 -27 -27 -27 -27 -27 -27 -27 -27 -27 -27 -28 -27 -27 -27 -27 -27 -27 -26 -26 -27 -26 -26 -26 -26 -25 -25 -25 -25 -25 -24 -24 -24 -24 -24 -23 -23 -23
-27 -27 -27 -27 -27 -27 -27 -27 -27 -28 -27 -28 -27 -27 -27 -27 -27 -27 -27 -27 -27 -27 -27 -27 -26 -27 -26 -26 -26 -26 -26 -26 -26 -26 -26 -25 -25 -25 -25 -24 -24 -24 -24 -24
-28 -28 -28 -28 -27 -27 -27 -28 -28 -28 -28 -28 -28 -28 -28 -27 -27 -27 -27 -27 -27 -27 -27 -27 -26 -26 -26 -27 -27 -27 -27 -27 -26 -26 -26 -26 -26 -25 -25 -25 -25 -25 -24 -24
-28 -28 -28 -28 -28 -28 -28 -28 -28 -28 -28 -28 -28 -28 -28 -28 -28 -28 -27 -27 -27 -27 -27 -27 -27 -27 -27 -27 -27 -27 -27 -27 -27 -26 -26 -26 -25 -25 -25 -25 -25 -25 -25 -25
-29 -29 -28 -28 -28 -28 -29 -28 -28 -28 -28 -28 -28 -28 -28 -28 -28 -28 -28 -27 -27 -27 -28 -27 -27 -27 -27 -27 -27 -27 -27 -27 -26 -26 -26 -26 -25 -25 -25 -25 -25 -25 -25 -24
-30 -29 -29 -29 -30 -29 -29 -28 -28 -28 -28 -28 -28 -28 -28 -28 -28 -28 -28 -28 -27 -27 -28 -27 -27 -27 -26 -26 -27 -27 -27 -26 -26 -26 -26 -26 -26 -25 -25 -25 -25 -25 -25 -25
-30 -30 -30 -30 -29 -29 -28 -27 -27 -28 -28 -28 -29 -29 -28 -28 -28 -28 -28 -28 -28 -28 -28 -27 -27 -26 -26 -26 -26 -26 -26 -26 -26 -26 -26 -26 -25 -25 -25 -25 -25 -25 -25 -25
-30 -30 -30 -30 -29 -28 -28 -28 -28 -28 -29 -29 -29 -29 -28 -28 -28 -28 -28 -28 -28 -28 -28 -27 -27 -26 -26 -26 -26 -27 -26 -26 -26 -26 -26 -26 -26 -26 -26 -26 -26 -26 -26 -25
-30 -30 -30 -29 -28 -28 -28 -29 -29 -29 -29 -29 -29 -29 -29 -29 -28 -28 -28 -28 -28 -27 -27 -27 -26 -26 -26 -26 -26 -26 -26 -26 -26 -26 -26 -26 -26 -25 -26 -26 -26 -26 -26 -26
-30 -30 -29 -29 -29 -29 -29 -29 -29 -29 -29 -29 -29 -29 -29 -29 -28 -28 -28 -27 -27 -27 -27 -27 -26 -26 -26 -26 -26 -26 -26 -26 -26 -26 -25 -25 -25 -25 -26 -26 -26 -26 -27 -27
-30 -29 -29 -29 -29 -29 -29 -29 -29 -29 -29 -29 -29 -28 -29 -28 -28 -28 -27 -27 -27 -27 -27 -26 -26 -26 -26 -26 -26 -26 -26 -26 -26 -26 -26 -26 -26 -26 -27 -27 -27 -28 -28 -29